Regional Weather Roundup
Issued by NWS Albany, NY

Home | Current Version | Previous Version | Graphics & Text | Print | Product List | Glossary Off
Versions: 1 2 3 4 5 6 7 8 9 10 11 12 13 14 15 16 17 18 19 20 21 22 23 24 25 26 27 28 29 30 31 32 33 34 35 36 37 38 39 40 41 42 43 44 45 46 47 48 49 50

000
ASUS41 KALY 211010
RWRALY

NEW YORK STATE HOURLY WEATHER ROUNDUP
NATIONAL WEATHER SERVICE ALBANY NY
600 AM EDT SAT APR 21 2018

NOTE: "FAIR" INDICATES FEW OR NO CLOUDS BELOW 12,000 FEET WITH NO
SIGNIFICANT WEATHER AND/OR NO OBSTRUCTIONS TO VISIBILITY.

NYZ032-033-038>043-046>054-057>066-NYZ062>081-082-084-211100-
EAST


CITY           SKY/WX    TMP DP  RH WIND       PRES   REMARKS
ALBANY         FAIR      34  24  67 NW7       30.36R WCI  28
GLENS FALLS    FAIR      25  23  92 CALM      30.34R
POUGHKEEPSIE   FAIR      26  23  88 CALM      30.37S
NEWBURGH       CLEAR     30  27  86 W6        30.38R WCI  24
MONTGOMERY     FAIR      36  24  62 W10       30.36R WCI  28
WHITE PLAINS   FAIR      34  24  67 NW9       30.36R WCI  27
ISLIP          FAIR      35  27  72 NW6       30.36S WCI  30
NEW YORK CITY  FAIR      42  26  53 NW13      30.38S
CENTRAL PARK   FAIR      39  25  57 CALM      30.41R
$$

NYZ005>009-017-018-044>046-055-056-211100-
CENTRAL


CITY           SKY/WX    TMP DP  RH WIND       PRES   REMARKS
FULTON         FAIR      32  28  85 W5        30.40F WCI  27
SYRACUSE       FAIR      30  25  81 SW7       30.41S WCI  23
ROME           FAIR      25  23  92 CALM      30.41S
ELMIRA         FAIR      24  23  96 SW3       30.42S
BINGHAMTON     FAIR      27  21  78 NW8       30.36R WCI  19
MONTICELLO       N/A     28  23  81 NW7       30.37R WCI  21
$$

NYZ026>034-041>043-087-211100-
NORTH


CITY           SKY/WX    TMP DP  RH WIND       PRES   REMARKS
WATERTOWN      FAIR      22  21  96 CALM      30.39S
FORT DRUM      NOT AVBL
OGDENSBURG     FAIR      28  25  86 CALM      30.37S
MASSENA        FAIR      29  23  78 W8        30.36R WCI  21
SARANAC LAKE   FAIR      18  16  92 CALM      30.28R
PLATTSBURGH    FAIR      36  22  56 VRB6      30.31R WCI  31
$$

NYZ001>004-010>016-019>021-085-211100-
WEST


CITY           SKY/WX    TMP DP  RH WIND       PRES   REMARKS
NIAGARA FALLS  FAIR      28  24  85 CALM      30.44S
BUFFALO        FAIR      28  26  92 S3        30.44S
DUNKIRK        FAIR      26  24  92 S3        30.45S
JAMESTOWN      FAIR      26  24  92 CALM      30.41S
WELLSVILLE     FAIR      29  23  78 CALM      30.40S
ROCHESTER      FAIR      30  25  81 SW5       30.44S WCI  25
PENN YAN       FAIR      35  20  54 W8        30.41S WCI  29
$$

             KEY
       WCI = WIND CHILL INDEX
       VSB = VISIBILITY
       HX  = HEAT INDEX
$$



USA.gov is the U.S. government's official web portal to all federal, state and local government web resources and services.